Weather History for Laramie, WY

Change the Weather History Date:

Wednesday, February 20, 2013

  Actual Average Record
Temperature  
Mean Temperature 26 °F 24 °F  
Max Temperature 43 °F 36 °F 59 °F (1958)
Min Temperature 10 °F 13 °F -13 °F (1984)
Degree Days  
Heating Degree Days 38 41  
Month to date heating degree days 788 845  
Since 1 July heating degree days 5449 5860  
Cooling Degree Days 0 0  
Month to date cooling degree days 0 0  
Year to date cooling degree days 0 0  
Moisture  
Dew Point 11 °F    
Average Humidity 60    
Maximum Humidity 100    
Minimum Humidity 20    
Precipitation  
Precipitation 0.00 in 0.02 in 0.35 in (1976)
Month to date precipitation 0.03 0.23  
Year to date precipitation 0.18 0.50  
Sea Level Pressure  
Sea Level Pressure 29.64 in    
Wind  
Wind Speed 10 mph (South)    
Max Wind Speed 23 mph    
Max Gust Speed 25 mph    
Visibility 10 miles    
Events      
T = Trace of Precipitation, MM = Missing Value Source: NWS Daily Summary

Daily Weather History Graph

Daily Weather History Graph

Search for Another Location

Airport:

Trip Planner

Search our weather history database for the weather conditions in past years. The results will help you decide how hot, cold, wet, or windy it might be!

Date:

Astronomy

Feb. 20, 2013 Rise Set
Actual Time 6:50 AM MST 5:43 PM MST
Civil Twilight 6:22 AM MST 6:11 PM MST
Nautical Twilight 5:49 AM MST 6:43 PM MST
Astronomical Twilight 5:18 AM MST 7:15 PM MST
Moon 1:04 PM MST (2/20) 3:14 AM MST (2/20)
Length of Visible Light 11h 49m
Length of Day
10h 53m
Waxing Gibbous, 76% of the Moon is Illuminated
Feb 20
Waxing Gibbous
Feb 25
Full
Mar 4
Last Quarter
Mar 11
New
Mar 19
First Quarter

Hourly Weather History & Observations

Time (MST) Temp. Windchill Dew Point Humidity Pressure Visibility Wind Dir Wind Speed Gust Speed Precip Events Conditions
12:53 AM 15.1 °F 1.8 °F 9.0 °F 77% 29.70 in 10.0 mi South 11.5 mph - N/A   Clear
1:53 AM 12.9 °F 0.7 °F 8.1 °F 81% 29.72 in 10.0 mi South 9.2 mph - N/A   Clear
2:53 AM 12.9 °F 0.7 °F 8.1 °F 81% 29.70 in 10.0 mi SSW 9.2 mph - N/A   Clear
3:53 AM 10.9 °F -0.8 °F 5.0 °F 77% 29.71 in 10.0 mi WSW 8.1 mph - N/A   Clear
4:53 AM 10.9 °F -0.8 °F 5.0 °F 77% 29.74 in 10.0 mi WSW 8.1 mph - N/A   Clear
6:53 AM 14.0 °F 5.1 °F 3.9 °F 64% 29.75 in 10.0 mi SW 5.8 mph - N/A   Clear
7:53 AM 14.0 °F 6.5 °F 5.0 °F 67% 29.75 in 10.0 mi South 4.6 mph - N/A   Clear
8:53 AM 23.0 °F 18.4 °F 7.0 °F 50% 29.69 in 10.0 mi WSW 3.5 mph - N/A   Clear
9:53 AM 28.0 °F - 8.1 °F 43% 29.65 in 10.0 mi Calm Calm - N/A   Clear
10:53 AM 36.0 °F - 5.0 °F 27% 29.61 in - Calm Calm - N/A   Clear
11:53 AM 42.1 °F - 5.0 °F 22% 29.55 in 10.0 mi Calm Calm - N/A   Clear
12:53 PM 43.0 °F 35.7 °F 6.1 °F 22% 29.53 in 10.0 mi South 15.0 mph 21.9 mph N/A   Clear
1:13 PM 42.8 °F 34.0 °F 12.2 °F 29% 29.52 in 10.0 mi South 20.7 mph 25.3 mph N/A   Clear
1:53 PM 37.9 °F 27.1 °F 12.0 °F 35% 29.55 in 10.0 mi SSE 23.0 mph - N/A   Clear
2:53 PM 37.0 °F 26.7 °F 12.0 °F 36% 29.56 in - SSE 19.6 mph - N/A   Clear
3:53 PM 36.0 °F 26.3 °F 10.9 °F 36% 29.57 in - SE 16.1 mph - N/A   Overcast
4:53 PM 30.9 °F 20.7 °F 12.9 °F 47% 29.62 in - SSE 13.8 mph - N/A   Overcast
5:53 PM 27.0 °F 16.7 °F 12.9 °F 56% 29.65 in 10.0 mi SSW 11.5 mph - N/A   Overcast
6:53 PM 21.0 °F 7.6 °F 16.0 °F 81% 29.68 in 10.0 mi South 15.0 mph 19.6 mph N/A   Overcast
7:53 PM 19.0 °F 5.0 °F 17.1 °F 92% 29.70 in 10.0 mi SSE 15.0 mph - N/A   Clear
8:02 PM 19.4 °F 5.5 °F 17.6 °F 93% 29.57 in 7.0 mi SSE 15.0 mph - N/A   Scattered Clouds
8:53 PM 18.0 °F 4.8 °F 17.1 °F 96% 29.67 in 9.0 mi SSE 12.7 mph - N/A   Mostly Cloudy
9:26 PM 17.6 °F 5.0 °F 17.6 °F 100% 29.59 in 10.0 mi SSE 11.5 mph - N/A   Mostly Cloudy
9:53 PM 18.0 °F 6.9 °F 17.1 °F 96% 29.66 in 10.0 mi SSE 9.2 mph - N/A   Mostly Cloudy
10:53 PM 16.0 °F - 14.0 °F 92% 29.63 in 10.0 mi Calm Calm - N/A   Clear
11:19 PM 17.6 °F - 15.8 °F 93% 29.59 in 10.0 mi Calm Calm - N/A   Scattered Clouds
11:34 PM 17.6 °F - 15.8 °F 93% 29.59 in 10.0 mi Calm Calm - N/A   Mostly Cloudy
11:53 PM 18.0 °F 12.7 °F 16.0 °F 92% 29.59 in 10.0 mi NNW 3.5 mph - N/A   Overcast